Temp
21 20 19 18 25 27 26 26 26 25 24 22 22 23 21 19 21 21 16 17 17 17 17 18 18 18 17 17 17 18 18 19 19 19 19 19 18 18 18 19 18 18 18 18 18 18 19 18 19
21 20 20 19 26 27 26 26 25 25 23 23 22 21 21 19 16 16 16 17 17 17 17 17 18 18 17 17 17 18 18 19 19 19 19 19 19 19 18 19 18 18 18 18 18 19 19 18 18
21 20 20 24 24 26 25 25 25 24 23 23 22 20 19 17 16 16 17 17 17 17 17 17 18 18 17 17 17 18 19 19 19 19 18 19 19 19 19 19 19 18 18 18 19 19 18 18 18
21 20 21 27 26 25 26 26 25 25 24 22 22 21 18 17 16 17 17 17 17 17 17 17 18 18 17 17 18 18 19 19 19 19 19 18 19 19 19 19 19 19 19 19 19 19 18 17 18
22 22 27 26 27 26 26 25 25 25 23 22 22 20 18 16 18 17 17 16 17 17 17 17 17 17 17 17 18 19 19 19 19 19 19 19 19 19 19 18 19 19 19 18 18 18 18 17 17
23 22 26 27 27 27 27 26 25 24 23 22 21 19 16 16 17 16 16 16 17 17 17 17 17 17 17 17 18 18 19 19 19 19 19 19 19 19 19 18 18 19 19 19 18 18 18 18 18
25 25 25 26 27 28 27 26 26 25 24 23 21 20 16 16 16 17 17 17 17 17 17 17 17 17 18 18 18 19 19 19 19 19 19 19 19 19 18 18 18 18 19 19 18 18 18 18 18
24 26 26 27 28 28 26 26 25 26 24 22 21 22 17 16 17 18 17 17 17 17 17 17 17 18 17 17 17 18 19 19 19 19 19 18 19 19 18 18 18 18 18 18 18 18 18 18 18
24 28 28 27 28 29 26 27 24 24 23 23 21 20 19 16 17 16 16 16 17 17 17 17 17 18 18 19 18 19 19 18 19 19 19 19 19 19 18 18 18 18 18 18 18 18 18 18 18
26 27 28 28 28 28 27 27 25 25 24 22 19 18 19 16 17 17 16 16 16 16 17 17 17 18 18 18 18 19 20 19 19 19 19 19 19 19 18 19 18 18 18 18 18 18 19 18 18
25 29 27 28 28 27 27 26 26 26 25 23 21 18 17 17 17 17 17 17 16 17 16 17 18 17 18 18 19 19 18 18 19 19 19 19 18 18 19 19 18 18 18 16 16 17 18 19 18
28 27 26 28 28 27 27 26 26 26 26 24 21 21 18 18 18 17 17 18 18 17 17 18 18 18 19 19 19 19 19 18 20 20 19 19 19 18 18 18 18 18 17 18 18 17 18 19 19
27 28 28 28 28 26 26 26 26 26 23 22 21 20 19 18 18 18 18 19 19 18 19 18 19 19 19 19 19 19 19 19 19 19 19 19 19 19 18 18 18 18 18 17 17 17 18 18 19
27 27 28 28 28 27 28 26 27 23 22 21 21 20 20 19 18 18 19 20 20 20 19 19 19 20 20 20 19 19 19 19 19 19 19 19 19 19 18 18 18 18 18 18 18 18 18 18 19
26 28 30 29 29 28 28 27 27 23 22 21 21 20 19 19 18 19 21 21 21 21 20 20 20 20 21 21 20 20 19 20 19 19 19 19 19 19 19 18 18 18 18 18 18 18 18 17 18
28 28 31 30 30 27 29 30 24 23 23 22 21 20 19 19 20 20 21 21 21 21 21 20 20 21 21 21 20 20 20 20 19 19 19 19 19 19 19 19 19 18 18 17 17 17 17 18 17
27 30 29 30 29 30 30 29 24 23 24 23 22 21 20 20 19 21 22 21 21 22 21 21 21 21 21 21 20 20 19 19 19 19 19 19 19 19 19 19 19 18 18 18 18 18 18 18 18
29 29 28 29 30 30 31 26 24 23 24 23 22 22 21 21 21 22 22 22 22 21 21 22 21 21 21 21 21 20 20 19 19 20 20 19 19 19 19 19 19 19 18 18 18 18 18 18 18
27 28 29 29 28 30 30 26 25 24 24 24 23 22 22 22 22 21 23 22 22 21 21 22 22 22 21 21 21 21 20 20 20 20 19 19 19 19 19 19 19 19 19 19 18 18 18 18 18
27 28 29 28 27 29 27 26 25 24 25 25 24 23 23 23 22 23 23 23 23 22 22 22 22 22 21 21 21 21 21 20 20 20 20 19 19 19 19 19 19 19 19 19 19 18 18 18 18
28 30 29 30 28 27 28 28 26 25 24 24 24 24 23 23 23 24 23 23 23 23 23 22 22 22 22 22 21 21 20 20 20 20 20 20 19 19 19 19 18 18 19 19 19 19 18 18 18
30 29 29 29 30 30 27 30 27 27 26 25 25 24 24 23 23 23 24 24 24 24 23 23 23 23 22 22 21 21 21 20 21 20 20 19 19 19 19 18 18 18 18 19 19 19 19 18 18
30 28 28 28 28 29 27 29 30 25 27 27 27 25 25 24 24 24 25 25 25 24 24 24 23 23 22 22 21 21 21 21 20 20 19 19 19 19 20 19 18 18 18 18 18 18 18 18 18
26 28 26 26 28 28 26 28 30 28 28 30 27 25 25 24 24 25 25 25 25 25 24 24 23 23 22 22 21 21 21 21 20 20 19 19 19 19 19 19 19 18 18 19 19 19 18 19 19
28 29 28 28 28 28 24 26 29 27 27 28 28 26 25 24 24 25 25 26 26 25 24 24 23 23 23 22 22 21 21 20 20 20 20 20 20 20 20 19 19 19 19 19 18 18 18 19 19
28 30 29 26 27 27 23 27 29 25 24 25 26 26 24 24 24 25 26 26 26 25 24 24 23 23 22 22 22 22 22 22 22 21 20 20 20 20 19 19 19 18 18 18 18 18 18 18 18
26 29 26 25 22 26 26 27 27 25 24 24 25 24 24 24 24 26 26 26 25 25 24 24 23 23 22 22 22 22 21 21 21 20 20 21 20 20 19 19 18 18 18 18 18 17 18 18 18
29 25 28 27 26 26 26 25 28 26 25 25 25 25 24 23 24 26 26 25 25 24 24 23 23 22 22 22 22 22 21 21 21 21 20 20 20 19 18 18 18 18 18 18 17 17 17 17 18
27 27 24 26 25 27 26 27 26 26 26 25 25 25 24 24 25 25 25 24 24 23 23 23 23 22 22 22 21 21 21 21 20 20 20 19 19 18 18 18 17 17 17 17 17 18 17 17 17
26 27 28 28 24 23 25 28 26 25 24 24 25 24 23 23 23 25 24 24 23 23 23 23 22 22 21 21 21 21 21 20 20 19 19 18 18 18 17 17 17 17 16 16 16 15 15 16 17
Height
1515 1514 1514 1513 1515 1509 1519 1521 1515 1514 1516 1520 1520 1520 1524 1528 1528 1535 1537 1539 1541 1542 1544 1546 1547 1549 1551 1553 1556 1559 1561 1564 1567 1569 1572 1574 1576 1578 1578 1579 1580 1582 1583 1584 1585 1585 1586 1587 1587
1515 1515 1514 1513 1516 1521 1525 1518 1519 1519 1521 1522 1523 1525 1526 1532 1534 1536 1539 1541 1543 1544 1547 1549 1550 1552 1555 1557 1560 1562 1565 1568 1570 1572 1575 1577 1580 1581 1582 1583 1584 1584 1585 1586 1587 1587 1588 1589 1590
1515 1515 1516 1513 1522 1525 1527 1521 1521 1523 1524 1523 1525 1528 1531 1537 1538 1540 1541 1543 1545 1547 1549 1552 1553 1556 1558 1561 1564 1567 1569 1571 1574 1576 1579 1580 1583 1583 1586 1585 1587 1587 1588 1589 1589 1590 1591 1592 1592
1516 1516 1517 1516 1524 1523 1521 1520 1521 1521 1523 1525 1527 1532 1538 1541 1542 1542 1544 1547 1548 1550 1552 1555 1556 1559 1562 1565 1567 1570 1573 1575 1577 1580 1582 1584 1585 1587 1588 1588 1589 1589 1589 1591 1592 1592 1594 1594 1595
1517 1516 1515 1520 1521 1521 1521 1522 1522 1522 1526 1528 1529 1537 1540 1543 1542 1544 1547 1550 1552 1554 1556 1559 1560 1562 1565 1568 1570 1573 1576 1579 1581 1584 1585 1587 1589 1590 1590 1591 1592 1591 1591 1593 1594 1595 1595 1597 1597
1517 1518 1522 1525 1520 1518 1519 1521 1523 1525 1528 1530 1534 1537 1544 1545 1546 1548 1550 1553 1556 1557 1560 1561 1563 1565 1568 1571 1574 1576 1579 1582 1585 1587 1589 1591 1592 1592 1593 1594 1594 1593 1594 1595 1596 1597 1598 1598 1599
1518 1518 1526 1524 1521 1518 1518 1521 1522 1525 1528 1531 1534 1539 1546 1548 1549 1550 1553 1556 1559 1561 1562 1565 1567 1570 1573 1577 1577 1580 1583 1586 1588 1589 1591 1593 1594 1595 1595 1596 1595 1596 1596 1597 1598 1599 1600 1600 1601
1519 1520 1524 1521 1521 1521 1521 1522 1523 1524 1530 1533 1535 1537 1545 1547 1549 1553 1556 1558 1561 1564 1567 1570 1573 1573 1575 1578 1580 1583 1585 1587 1590 1592 1593 1594 1595 1597 1598 1598 1599 1598 1598 1598 1599 1600 1601 1602 1603
1519 1520 1524 1523 1520 1518 1521 1522 1525 1527 1529 1534 1536 1538 1541 1545 1550 1555 1558 1561 1564 1568 1570 1573 1573 1576 1579 1582 1582 1586 1587 1588 1591 1593 1595 1596 1597 1598 1599 1599 1600 1600 1600 1600 1600 1602 1602 1603 1604
1522 1525 1524 1519 1518 1516 1520 1522 1525 1528 1530 1535 1538 1541 1544 1548 1553 1556 1560 1563 1567 1569 1572 1575 1576 1579 1580 1581 1584 1588 1591 1592 1593 1595 1596 1597 1599 1599 1600 1601 1601 1601 1601 1601 1601 1602 1603 1604 1605
1523 1522 1522 1517 1516 1515 1518 1521 1524 1526 1530 1533 1538 1543 1546 1550 1555 1558 1562 1565 1567 1570 1573 1576 1578 1581 1583 1583 1585 1587 1588 1591 1594 1595 1597 1598 1598 1599 1600 1601 1602 1602 1602 1603 1602 1602 1603 1604 1604
1523 1521 1521 1517 1516 1516 1518 1521 1524 1527 1530 1532 1537 1541 1546 1550 1554 1558 1561 1565 1568 1571 1574 1577 1579 1583 1586 1587 1589 1591 1591 1592 1595 1596 1597 1597 1598 1598 1599 1600 1601 1601 1602 1602 1602 1602 1602 1603 1603
1523 1520 1519 1516 1514 1515 1519 1524 1526 1530 1531 1533 1537 1542 1547 1552 1556 1560 1563 1566 1569 1572 1576 1578 1581 1584 1586 1588 1590 1592 1593 1594 1596 1595 1597 1598 1598 1597 1598 1600 1601 1601 1601 1601 1601 1601 1601 1602 1602
1523 1521 1516 1515 1514 1516 1519 1524 1526 1534 1533 1534 1538 1544 1548 1552 1556 1560 1562 1566 1569 1573 1576 1579 1581 1584 1586 1588 1590 1592 1594 1595 1596 1597 1597 1598 1597 1598 1598 1600 1599 1600 1601 1600 1599 1600 1600 1601 1601
1523 1520 1516 1516 1515 1517 1519 1526 1527 1532 1534 1537 1542 1546 1551 1555 1558 1560 1563 1566 1570 1573 1576 1579 1582 1585 1586 1588 1590 1591 1593 1594 1595 1596 1596 1597 1597 1598 1598 1598 1599 1599 1598 1598 1598 1598 1599 1600 1600
1522 1521 1517 1515 1513 1518 1519 1526 1531 1533 1534 1538 1542 1548 1551 1554 1557 1561 1563 1566 1570 1573 1576 1579 1581 1583 1586 1588 1589 1591 1592 1593 1593 1594 1595 1596 1596 1596 1597 1596 1597 1597 1596 1596 1597 1597 1598 1598 1599
1523 1522 1522 1516 1514 1515 1518 1524 1531 1534 1536 1539 1543 1547 1550 1554 1556 1559 1563 1566 1569 1572 1575 1578 1581 1583 1585 1587 1589 1590 1590 1591 1592 1592 1593 1593 1594 1595 1595 1595 1595 1595 1594 1595 1595 1595 1595 1596 1597
1525 1524 1523 1522 1517 1515 1517 1528 1531 1534 1536 1539 1542 1545 1548 1551 1553 1557 1561 1565 1568 1571 1574 1577 1579 1582 1584 1586 1587 1588 1589 1590 1590 1590 1591 1591 1592 1593 1593 1593 1592 1592 1592 1591 1592 1592 1592 1592 1593
1521 1522 1523 1519 1518 1517 1520 1528 1529 1533 1536 1538 1541 1543 1546 1549 1554 1556 1560 1564 1566 1569 1571 1574 1577 1579 1581 1583 1585 1586 1586 1587 1588 1589 1589 1590 1590 1590 1590 1590 1590 1590 1589 1590 1589 1589 1589 1589 1589
1521 1521 1521 1521 1521 1518 1525 1530 1531 1533 1534 1536 1539 1542 1545 1549 1551 1554 1557 1560 1563 1566 1569 1572 1575 1577 1579 1580 1581 1582 1583 1584 1585 1586 1586 1586 1587 1587 1587 1586 1586 1586 1585 1585 1585 1585 1585 1584 1585
1517 1515 1519 1518 1521 1522 1523 1530 1532 1532 1534 1535 1537 1540 1544 1546 1549 1553 1556 1558 1561 1563 1566 1569 1572 1574 1575 1577 1579 1580 1580 1581 1582 1583 1583 1584 1583 1582 1582 1582 1582 1582 1581 1580 1581 1580 1580 1579 1579
1516 1513 1515 1518 1520 1531 1528 1539 1531 1528 1529 1530 1532 1535 1539 1543 1546 1549 1553 1556 1558 1561 1564 1566 1568 1571 1573 1574 1576 1576 1577 1577 1578 1578 1579 1579 1578 1577 1576 1576 1576 1575 1576 1575 1574 1574 1574 1574 1573
1513 1513 1517 1520 1523 1526 1533 1535 1521 1529 1526 1522 1526 1530 1535 1539 1542 1546 1548 1552 1555 1558 1560 1562 1564 1567 1569 1571 1572 1574 1574 1574 1575 1575 1574 1574 1573 1573 1571 1570 1570 1570 1568 1568 1567 1567 1567 1567 1567
1513 1515 1520 1524 1524 1538 1537 1536 1526 1523 1515 1514 1521 1525 1530 1534 1538 1543 1547 1550 1552 1555 1557 1559 1561 1564 1566 1568 1569 1570 1571 1572 1571 1571 1570 1569 1568 1566 1565 1565 1564 1563 1563 1562 1560 1560 1560 1559 1558
1512 1515 1534 1540 1539 1540 1540 1542 1519 1518 1515 1516 1516 1521 1524 1530 1534 1539 1543 1546 1549 1551 1553 1556 1558 1560 1563 1565 1567 1568 1569 1568 1568 1567 1566 1566 1564 1563 1562 1561 1559 1557 1557 1556 1554 1552 1552 1551 1550
1513 1511 1527 1552 1546 1540 1543 1537 1517 1517 1515 1515 1516 1520 1524 1528 1532 1535 1539 1543 1546 1549 1551 1554 1557 1559 1561 1563 1565 1565 1566 1566 1565 1564 1563 1561 1559 1558 1558 1556 1554 1553 1552 1551 1549 1547 1545 1544 1543
1516 1516 1520 1535 1552 1542 1537 1526 1513 1514 1513 1514 1515 1518 1522 1526 1529 1532 1536 1539 1543 1546 1548 1551 1554 1557 1558 1560 1561 1562 1562 1562 1561 1561 1559 1555 1554 1551 1549 1549 1547 1546 1545 1545 1544 1541 1540 1538 1536
1503 1514 1524 1527 1549 1552 1539 1538 1523 1516 1514 1514 1515 1516 1520 1524 1527 1530 1534 1537 1541 1544 1546 1549 1551 1554 1555 1557 1558 1559 1559 1558 1557 1555 1553 1551 1548 1545 1542 1541 1539 1537 1537 1536 1536 1533 1531 1530 1529
1512 1513 1524 1524 1534 1538 1546 1531 1513 1512 1512 1512 1513 1516 1518 1521 1525 1529 1533 1536 1539 1541 1544 1547 1549 1551 1552 1554 1555 1555 1555 1554 1552 1549 1547 1544 1541 1538 1534 1532 1530 1528 1526 1525 1524 1523 1521 1519 1520
1503 1506 1507 1517 1541 1540 1535 1526 1509 1511 1512 1513 1514 1517 1518 1521 1524 1528 1531 1534 1536 1539 1542 1544 1546 1549 1550 1551 1551 1551 1550 1548 1546 1543 1540 1537 1533 1530 1527 1523 1520 1518 1516 1515 1513 1511 1511 1509 1509
Wind_Speed
1 1 2 1 1 3 8 7 5 8 4 4 3 3 9 10 3 3 13 12 14 17 17 19 22 25 29 32 31 29 29 32 30 27 26 22 17 16 18 16 16 14 13 12 14 12 13 13 16
1 2 2 1 3 6 5 6 12 10 11 11 10 8 8 5 5 13 10 17 15 18 18 18 25 29 32 30 29 29 31 30 28 25 23 23 21 19 17 15 15 14 13 12 11 11 12 15 16
3 2 1 3 3 5 3 3 5 9 4 3 5 10 5 4 10 9 17 18 16 19 20 21 28 28 28 27 27 29 30 30 26 24 22 24 22 20 17 16 13 13 12 11 9 12 13 15 17
4 3 1 3 6 2 2 3 4 2 7 10 8 9 8 10 6 11 20 18 19 19 20 25 26 28 27 26 27 29 28 27 25 22 21 21 19 17 15 14 12 11 10 9 9 12 14 15 14
3 2 3 3 4 1 1 6 7 7 6 6 5 8 8 4 9 20 20 19 19 20 21 22 24 24 26 24 23 26 26 25 22 20 20 17 13 13 12 11 10 11 9 10 10 12 12 10 9
1 1 3 4 4 1 4 9 10 13 12 10 11 9 5 9 19 19 22 24 20 19 19 25 23 25 24 21 21 23 23 21 19 18 17 13 9 9 9 9 9 9 8 8 9 9 8 9 8
2 2 2 2 4 1 4 8 7 11 7 5 9 5 6 12 17 21 25 19 17 19 20 21 25 25 24 20 20 21 19 15 15 12 9 5 4 6 6 7 7 7 6 6 7 8 7 6 6
2 1 2 3 6 4 5 3 9 6 7 11 5 6 8 18 20 21 19 17 19 19 22 19 22 25 24 21 22 16 14 13 12 10 7 4 2 3 4 5 5 5 4 4 6 8 8 6 5
4 3 5 4 5 4 8 2 4 6 14 6 4 8 19 26 23 22 21 20 23 22 23 22 22 22 22 21 22 20 19 8 8 8 6 5 1 0 2 3 2 2 2 1 4 7 9 8 6
3 2 3 4 6 6 7 4 9 6 11 6 14 16 26 25 24 23 21 20 19 19 23 22 23 24 28 30 26 21 17 14 13 12 10 6 3 1 2 2 2 1 1 2 4 6 9 10 8
1 3 2 5 8 6 8 8 5 10 6 8 18 25 26 24 22 22 21 19 20 22 20 22 21 22 26 28 27 27 18 15 13 9 9 8 5 5 5 5 6 5 4 3 4 6 8 11 12
4 5 5 7 5 3 9 12 6 6 5 11 23 27 26 25 24 23 22 23 22 21 20 22 21 23 23 21 19 17 13 10 8 1 5 9 8 6 5 6 7 6 6 5 6 6 9 11 13
2 4 6 11 13 4 10 8 5 8 8 17 25 26 25 22 21 20 20 21 22 22 21 22 20 22 21 18 16 14 14 12 11 13 10 10 9 8 7 7 7 6 7 8 8 8 9 11 12
2 9 18 7 2 4 11 7 3 6 13 21 27 25 23 23 21 19 22 23 22 20 18 18 17 17 16 15 14 14 12 12 12 12 11 10 11 10 11 10 9 9 9 10 9 10 11 12 14
4 7 6 3 7 6 12 6 2 18 18 21 23 21 21 19 19 20 20 22 22 21 19 17 15 15 13 11 11 11 10 11 11 11 12 12 11 11 13 11 10 10 11 10 8 10 12 12 13
2 1 2 3 4 6 6 4 8 19 22 21 21 20 20 21 21 20 19 18 19 20 19 19 19 17 14 12 12 10 10 12 12 13 12 12 12 11 11 12 11 11 13 13 13 12 13 14 15
1 3 2 2 0 6 5 4 11 17 18 19 19 19 19 19 20 22 21 18 16 17 18 18 18 18 16 13 12 11 10 12 13 14 15 13 11 12 14 13 11 11 12 12 15 16 16 18 18
2 4 2 1 2 4 6 5 10 15 15 18 18 18 19 20 22 22 22 20 18 15 16 18 18 17 17 17 15 14 14 13 14 13 14 13 13 14 15 16 15 14 15 15 15 16 17 19 20
2 2 2 2 2 2 2 5 9 13 14 16 17 18 18 18 15 18 19 19 19 19 17 17 19 19 18 19 20 19 18 16 15 15 15 16 16 16 15 16 16 16 17 15 16 17 18 19 19
5 6 3 5 3 2 4 5 7 11 14 15 16 17 17 14 14 17 18 18 20 19 20 18 14 16 19 18 18 21 22 21 19 18 17 18 18 19 19 20 19 19 20 20 20 20 21 20 19
2 1 3 4 6 7 7 2 3 6 12 12 15 16 16 17 16 17 19 20 20 20 20 19 19 17 15 17 19 20 23 23 21 20 20 20 20 21 24 23 23 22 22 23 21 21 22 24 23
4 5 3 7 5 3 3 8 4 6 10 16 18 19 19 18 19 20 20 20 20 18 18 17 16 16 19 19 20 21 24 25 22 22 23 23 22 20 23 22 25 24 24 25 25 26 27 25 25
2 4 4 3 4 5 3 5 4 4 11 17 20 21 20 20 20 22 22 18 14 14 12 13 18 19 20 20 20 19 19 20 22 20 19 17 20 20 20 18 21 23 22 24 24 25 26 27 29
10 4 5 4 2 5 3 5 6 8 17 14 16 18 20 20 21 22 22 19 16 16 17 18 17 16 18 15 14 13 10 7 12 14 16 17 18 18 19 21 22 22 24 25 25 26 25 27 29
2 3 3 4 4 1 3 3 5 4 8 12 17 18 18 19 19 21 22 21 18 20 21 17 15 13 12 11 9 9 8 11 14 14 16 17 18 18 17 18 17 19 19 20 20 22 23 23 26
3 1 1 3 2 2 2 4 1 5 12 11 15 14 14 17 18 20 22 23 21 19 18 16 15 11 8 9 6 8 9 11 16 20 21 23 24 25 23 23 23 23 23 22 22 23 23 23 23
5 5 3 5 2 3 0 2 7 5 1 8 13 14 16 18 19 22 21 21 22 20 19 17 16 14 12 12 14 12 13 16 19 21 24 28 28 30 29 28 30 29 27 27 26 27 26 25 25
3 9 4 1 2 3 2 3 4 2 5 8 13 17 17 17 21 22 21 21 21 20 17 14 13 12 13 13 13 14 17 19 21 22 24 26 30 32 32 29 29 30 31 31 31 32 33 31 30
6 4 6 4 2 2 3 1 4 5 8 12 17 19 21 22 24 22 22 22 20 19 16 14 15 15 15 15 15 17 17 19 22 25 28 30 32 33 35 36 36 37 36 34 34 35 35 38 34
1 5 6 5 5 0 3 5 4 5 8 15 18 19 19 21 20 22 23 21 19 17 15 16 16 16 16 15 16 18 21 22 25 29 31 32 34 36 37 38 39 39 39 38 34 30 29 32 35
Wind_Direction
220 140 170 88 198 70 54 39 40 48 54 42 83 64 93 48 16 56 139 139 139 138 136 136 132 129 134 133 134 131 128 131 128 117 117 114 116 117 112 107 108 120 111 107 107 108 107 107 104
75 262 38 313 40 74 58 38 49 55 117 96 73 74 56 66 56 123 122 133 142 138 135 138 136 134 132 135 134 134 131 131 129 120 114 110 106 104 106 105 106 113 111 111 114 110 113 110 104
47 346 359 65 56 43 57 45 68 61 105 43 106 56 53 53 109 122 136 135 138 134 136 138 136 136 137 134 136 137 135 134 129 122 116 112 105 100 96 98 105 111 112 112 111 113 117 110 109
336 2 19 58 50 76 48 69 100 131 64 43 102 71 68 106 114 138 136 132 134 130 134 141 138 135 136 137 140 142 138 130 125 124 122 117 103 95 90 89 94 109 115 110 111 120 122 117 114
357 357 49 53 46 49 191 106 63 71 84 39 91 92 94 38 134 138 135 137 137 133 134 135 133 132 136 138 143 144 142 135 126 123 123 119 107 94 85 83 89 93 116 120 122 124 125 119 115
343 17 59 47 22 106 115 138 90 85 103 92 87 97 70 113 136 136 135 134 132 134 134 130 126 127 126 132 145 147 150 147 137 128 121 112 98 91 87 89 91 90 108 131 143 140 135 126 115
54 35 44 3 360 69 128 151 107 110 106 88 124 88 121 136 142 142 147 145 135 133 137 135 128 125 125 130 138 141 143 150 155 152 153 135 97 86 87 89 88 100 105 128 152 160 156 142 124
50 81 48 4 352 46 131 108 140 118 88 123 108 142 157 158 148 142 145 150 146 138 138 135 131 129 129 128 119 125 132 149 173 182 195 193 128 90 75 90 88 103 99 133 176 180 176 168 152
16 38 40 8 344 358 155 153 136 98 129 77 42 130 149 151 149 144 140 136 143 135 136 138 134 133 137 138 131 129 128 126 186 201 196 179 221 128 102 76 71 103 117 177 206 212 207 197 199
53 62 338 306 297 291 159 174 144 137 137 90 84 118 148 150 153 151 152 150 149 152 150 150 153 147 141 139 140 130 142 192 195 193 193 202 231 245 242 300 279 259 239 250 244 236 229 223 219
103 357 308 296 307 288 162 146 157 138 183 171 150 146 152 155 159 160 161 160 157 156 161 164 161 166 162 157 152 160 174 186 197 206 216 222 235 259 269 293 298 290 276 259 263 253 247 235 228
318 267 261 294 300 330 154 151 163 160 14 166 158 158 160 164 168 171 169 169 168 166 169 174 174 173 173 170 175 182 191 184 161 154 264 253 255 243 274 293 292 285 266 268 265 259 249 241 236
256 300 295 297 300 201 135 155 108 182 83 143 153 160 166 170 174 177 178 181 180 180 178 180 182 182 186 193 198 200 205 212 210 224 233 240 255 272 261 268 292 278 282 279 269 263 255 248 243
292 288 297 315 249 174 161 151 129 114 140 142 158 164 169 174 177 180 184 185 192 191 187 185 185 182 187 193 199 206 215 221 224 231 241 249 257 264 275 272 272 277 281 281 275 267 262 256 248
280 294 296 187 183 148 137 122 153 153 154 151 162 168 172 178 182 187 188 191 191 191 197 197 189 188 190 195 208 220 214 230 233 236 241 247 253 260 274 270 275 287 278 277 276 277 266 265 263
293 238 191 88 162 138 212 106 124 161 160 163 165 173 179 188 191 193 195 198 202 203 204 205 205 202 203 207 214 223 234 232 238 244 250 256 264 262 270 282 287 280 279 274 278 277 274 272 274
352 146 168 115 303 151 222 121 158 173 173 163 169 178 187 194 201 204 203 206 208 211 213 214 217 218 219 220 229 237 246 245 251 256 253 251 252 256 265 273 278 279 280 276 276 278 275 272 271
97 127 176 179 127 194 183 100 156 176 184 172 174 182 195 200 206 207 210 212 216 219 221 224 228 230 233 236 239 243 248 248 245 244 241 241 251 261 268 276 276 274 277 284 286 279 279 277 274
162 166 136 107 2 172 199 133 177 180 194 185 183 187 200 212 210 214 213 218 223 224 226 228 231 235 239 243 245 250 257 262 263 258 253 255 255 257 260 267 271 268 273 276 275 278 277 278 279
190 162 144 105 23 186 164 93 185 198 208 208 200 200 202 204 215 217 221 220 223 227 228 231 233 247 249 253 260 261 264 268 270 271 271 268 268 265 263 264 268 268 273 272 273 277 281 282 279
146 157 168 143 104 77 137 144 168 209 220 221 221 220 213 210 216 224 219 219 225 229 232 232 238 253 255 250 252 263 268 269 274 277 279 279 282 274 267 266 267 269 269 272 273 273 274 278 280
165 186 145 138 177 165 323 211 227 209 221 229 222 218 215 216 221 229 234 227 225 230 237 239 231 244 252 259 257 265 272 277 289 286 290 283 283 285 270 268 268 268 267 265 270 270 269 270 268
111 114 111 103 106 159 182 233 197 204 233 231 221 220 218 217 219 226 232 232 231 225 229 241 244 242 255 259 263 272 284 289 284 287 289 286 286 283 284 287 276 273 274 273 274 275 271 271 271
144 95 63 77 109 217 136 239 224 214 231 221 224 224 217 214 215 226 227 229 225 226 229 238 247 253 254 265 273 273 275 294 300 307 303 303 299 294 288 286 284 280 277 276 278 281 276 274 271
157 150 155 193 200 235 116 192 276 237 265 235 221 220 215 209 211 218 218 218 213 220 229 230 242 240 244 253 256 260 287 299 301 304 305 305 301 298 295 295 290 286 286 282 281 278 276 272 268
163 210 152 203 231 123 151 230 149 305 284 242 226 210 204 202 206 211 213 212 215 223 225 223 225 223 226 234 239 255 272 289 303 305 303 303 298 297 293 287 288 285 282 284 285 287 284 282 277
152 158 76 109 104 248 53 248 264 341 8 192 192 189 196 199 200 206 209 211 214 212 214 214 221 230 237 241 247 247 263 275 289 290 295 301 302 300 293 292 286 285 283 278 278 278 278 283 281
208 135 151 81 197 281 161 268 277 299 222 195 197 194 191 195 198 202 206 206 209 214 217 215 221 219 216 229 239 258 274 279 281 287 296 296 296 294 295 293 290 290 289 286 284 282 279 275 277
145 142 67 106 327 281 299 275 219 251 223 214 205 197 192 194 198 201 203 208 212 215 211 209 215 219 227 243 254 270 270 281 291 300 304 304 300 295 290 289 291 293 294 295 291 282 272 272 266
42 141 162 212 188 138 300 279 174 265 254 216 214 211 209 206 203 203 208 213 212 210 209 214 220 230 241 250 260 266 278 295 305 309 311 309 303 297 289 286 287 289 294 296 295 284 275 268 264